Regional Weather Roundup
Issued by NWS

Home | Current Version | Previous Version | Graphics & Text | Print | Product List | Glossary On
Versions: 1 2 3 4 5 6 7 8 9 10 11 12 13 14 15 16 17 18 19 20 21 22 23 24 25 26 27 28 29 30 31 32 33 34 35 36 37 38 39 40 41 42 43 44 45 46 47 48 49 50
000
ASUS43 KLMK 070110
RWRKY
KENTUCKY REGIONAL WEATHER ROUNDUP
NATIONAL WEATHER SERVICE LOUISVILLE KY
900 PM EDT MON JUL 06 2015

NOTE "FAIR" INDICATES FEW OR NO CLOUDS BELOW 12,000 FEET
WITH NO SIGNIFICANT WEATHER AND/OR OBSTRUCTIONS TO VISIBILITY.

KYZ001>023-026-027-061>063-070>075-070200-
WESTERN AND SOUTH CENTRAL KENTUCKY

CITY           SKY/WX    TMP DP  RH WIND       PRES   REMARKS
PADUCAH        PTCLDY    82  73  74 SW6       29.97R
HENDERSON      PTCLDY    81  72  74 S6        29.96R
OWENSBORO      PTCLDY    82  76  82 S8        29.98R
HOPKINSVILLE   MOCLDY    81  73  74 S7        30.00S
BOWLING GREEN  CLEAR     82  70  66 S8        30.01S
GLASGOW        CLEAR     78  69  73 S3        30.02S
$$

KYZ024-025-028>034-038-045-046-053-070200-
NORTH CENTRAL KENTUCKY

CITY           SKY/WX    TMP DP  RH WIND       PRES   REMARKS
LOUISVILLE/SDF PTCLDY    82  70  66 S10       29.98S
LOUISVILLE/LOU CLEAR     82  70  66 S5        29.99S
FORT KNOX      PTCLDY    78  71  79 S5        29.99S
$$

KYZ035>037-039>044-047>052-055>060-089>105-070200-
NORTHEAST KENTUCKY

CITY           SKY/WX    TMP DP  RH WIND       PRES   REMARKS
LEXINGTON      CLEAR     77  69  76 S6        30.03F
COVINGTON      MOCLDY    78  68  71 S5        30.00F HAZE
FRANKFORT      CLEAR     79  68  69 S8        30.01S
$$

KYZ054-064>069-076>088-106>120-070200-
SOUTHEAST KENTUCKY

CITY           SKY/WX    TMP DP  RH WIND       PRES   REMARKS
JACKSON        CLEAR     74  68  81 CALM      30.07F
LONDON         CLEAR     78  67  68 CALM      30.07S
SOMERSET       CLEAR     77  66  69 CALM      30.06F
MIDDLESBORO    CLEAR     75  70  85 NW3       30.09R
MONTICELLO     CLEAR     77  73  87 CALM      30.08S
$$



USA.gov is the U.S. government's official web portal to all federal, state and local government web resources and services.